Regional Weather Roundup
Issued by NWS

Home | Current Version | Previous Version | Text Only | Print | Product List | Glossary On
Versions: 1 2 3 4 5 6 7 8 9 10 11 12 13 14 15 16 17 18 19 20 21 22 23 24 25 26 27 28
000
ASUS44 KBMX 270310
RWRAL

ALABAMA REGIONAL WEATHER ROUNDUP
NATIONAL WEATHER SERVICE BIRMINGHAM AL
1000 PM CDT SUN MAR 26 2017

NOTE: "FAIR" INDICATES FEW OR NO CLOUDS BELOW 12,000 FEET
WITH NO SIGNIFICANT WEATHER AND/OR OBSTRUCTIONS TO VISIBILITY.

THE REMARK "TC" DENOTES TEMPERATURE IN DEGREES CELSIUS.

ALZ001>011-014-016>018-020-270400-
NORTH ALABAMA

CITY           SKY/WX    TMP DP  RH WIND       PRES   REMARKS
MUSCLE SHOALS  CLEAR     62  54  74 SE6       30.00F
HUNTSVILLE     CLEAR     61  57  87 E6        30.02S
DECATUR        CLEAR     58  56  93 SE5       30.02S
HALEYVILLE     FAIR      63  58  83 SE6       30.03F
GADSDEN        PTCLDY    59  57  93 CALM      30.05S
$$

ALZ012-013-022-023-030>036-040>044-270400-
WEST CENTRAL ALABAMA

CITY           SKY/WX    TMP DP  RH WIND       PRES   REMARKS
TUSCALOOSA     CLEAR     61  59  93 CALM      30.01R
$$

ALZ015-024>027-033>036-040>044-270400-
CENTRAL ALABAMA

CITY           SKY/WX    TMP DP  RH WIND       PRES   REMARKS
BIRMINGHAM     CLEAR     63  58  83 CALM      30.06R
MONTGOMERY     CLOUDY    74  61  63 S7        30.05R
SHELBY CO ARPT MOCLDY    65  61  87 CALM      30.04R
MAXWELL AFB    CLOUDY    71  63  75 S7        30.04R
GREENVILLE     FAIR      68  62  81 S6        30.06R
$$

ALZ019-021-028-029-037-038-045>048-270400-
EAST CENTRAL ALABAMA

CITY           SKY/WX    TMP DP  RH WIND       PRES   REMARKS
ANNISTON       CLEAR     61  61 100 CALM      30.06R
ALEXANDER CITY CLEAR     62  59  91 CALM      30.06S
AUBURN         NOT AVBL
$$

ALZ051>064-270400-
SOUTHWEST ALABAMA

CITY           SKY/WX    TMP DP  RH WIND       PRES   REMARKS
MOBILE         MOCLDY    69  67  93 S5        30.06S
BROOKLEY FIELD CLOUDY    72  70  93 S8        30.07R
EVERGREEN      MOCLDY    68  65  90 S9        30.07R
$$

ALZ049-050-065>069-270400-
SOUTHEAST ALABAMA

CITY           SKY/WX    TMP DP  RH WIND       PRES   REMARKS
DOTHAN         CLEAR     66  64  93 S6        30.12R
OZARK          CLEAR     66  64  91 S6        30.08R
TROY           CLEAR     67  64  90 S5        30.08R
EUFAULA        FAIR      68  61  78 SW5       30.07R
$$




USA.gov is the U.S. government's official web portal to all federal, state and local government web resources and services.